This is the latest recevied weather packets stored in our database for station/object N4DWK. If no packets are shown the sender has not sent any weather packets the latest 10 day(s).
| Time | Temp. | Humidity | Pressure | Rain* | Wind** | Luminosity | Snow |
|---|---|---|---|---|---|---|---|
| 1777551904 | 15° C | 94% | 1009 hPa | 0 mm | - | 62 W/m² | - |
| 1777551604 | 15° C | 94% | 1009 hPa | 0 mm | - | 49 W/m² | - |
| 1777551304 | 15° C | 94% | 1009 hPa | 0 mm | - | 62 W/m² | - |
| 1777551004 | 15° C | 93% | 1008.7 hPa | 0 mm | - | 58 W/m² | - |
| 1777550704 | 15° C | 93% | 1008.6 hPa | 0 mm | - | 58 W/m² | - |
| 1777550404 | 14.44° C | 93% | 1008.9 hPa | 0 mm | - | 51 W/m² | - |
| 1777550104 | 14.44° C | 94% | 1009 hPa | 0 mm | - | 47 W/m² | - |
| 1777549804 | 14.44° C | 94% | 1009.2 hPa | 0 mm | - | 51 W/m² | - |
| 1777549504 | 14.44° C | 94% | 1009.4 hPa | 0 mm | - | 32 W/m² | - |
| 1777549204 | 14.44° C | 94% | 1009.4 hPa | 0 mm | - | 23 W/m² | - |
| 1777548904 | 14.44° C | 94% | 1009.4 hPa | 0 mm | - | 19 W/m² | - |
| 1777548604 | 14.44° C | 94% | 1009.3 hPa | 0 mm | - | 16 W/m² | - |
| 1777548304 | 14.44° C | 94% | 1009.4 hPa | 0 mm | - | 19 W/m² | - |
| 1777548004 | 14.44° C | 94% | 1009.5 hPa | 0 mm | - | 18 W/m² | - |
| 1777547704 | 14.44° C | 94% | 1009.5 hPa | 0 mm | - | 21 W/m² | - |
| 1777547404 | 14.44° C | 94% | 1009.1 hPa | 0 mm | - | 18 W/m² | - |
| 1777547104 | 14.44° C | 94% | 1008.9 hPa | 0 mm | - | 32 W/m² | - |
| 1777546805 | 13.89° C | 94% | 1009.1 hPa | 0 mm | - | 25 W/m² | - |
| 1777546504 | 13.89° C | 94% | 1009.1 hPa | 0 mm | - | 26 W/m² | - |
| 1777546204 | 13.89° C | 94% | 1009 hPa | 0 mm | - | 21 W/m² | - |
| 1777545904 | 13.89° C | 94% | 1008.7 hPa | 0 mm | - | 21 W/m² | - |
| 1777545604 | 13.89° C | 94% | 1008.3 hPa | 0 mm | - | 14 W/m² | - |
| 1777545304 | 13.89° C | 94% | 1008 hPa | 0 mm | - | 9 W/m² | - |
| 1777545004 | 13.89° C | 94% | 1008.3 hPa | 0 mm | - | 5 W/m² | - |
| 1777544704 | 13.89° C | 94% | 1008.2 hPa | 0 mm | - | 5 W/m² | - |
* Rain latest hour (hover to see other rain measurements)
** Current wind speed in m/s (hover to see current wind gust speed)